DW5499 Weather Reports


Display with metric or nautical units.
time (UTC)temp
F
wind
direction
speed
MPH
gust
MPH
rain 1hr
in
rain 24hr
in
rain mn
in
humidity
%
barometer
mb
20260906050050 81 202 0.0 0.0 0.00 0.00 0.00 80 1012.8
20260906044554 81 202 0.0 1.0 0.00 0.00 0.00 80 1012.8
20260906043049 82 202 0.0 2.0 0.00 0.00 0.00 79 1012.7
20260906041552 82 202 0.0 2.0 0.00 0.00 0.00 78 1012.6
20260906040124 82 202 1.0 2.0 0.00 0.00 0.00 78 1012.4
20260906034600 83 206 0.0 2.0 0.00 0.00 0.00 79 1012.4
20260906033102 83 206 0.0 2.0 0.00 0.00 0.00 79 1012.3
20260906031546 83 231 1.0 4.0 0.00 0.00 0.00 77 1012.2
20260906030046 84 239 2.0 3.0 0.00 0.00 0.00 76 1011.9
20260906024552 85 200 1.0 2.0 0.00 0.00 0.00 76 1011.8
20260906023050 86 200 0.0 1.0 0.00 0.00 0.00 75 1011.7
20260906021545 87 236 0.0 2.0 0.00 0.00 0.00 74 1011.5
20260906020045 88 353 0.0 2.0 0.00 0.00 0.00 71 1011.2
20260906014544 89 353 0.0 1.0 0.00 0.00 0.00 66 1011.0
20260906013044 89 353 0.0 2.0 0.00 0.00 0.00 64 1011.0
20260906011543 90 353 0.0 2.0 0.00 0.00 0.00 63 1010.9
20260906010044 90 51 0.0 3.0 0.00 0.00 0.00 62 1010.8
20260906004543 91 31 2.0 4.0 0.00 0.00 0.00 62 1010.8
20260906003042 92 350 2.0 5.0 0.00 0.00 0.00 60 1010.9
20260906001542 93 41 2.0 4.0 0.00 0.00 0.00 56 1010.8
20260906000042 94 8 2.0 4.0 0.00 0.00 0.00 54 1010.8
20260905234544 94 340 1.0 3.0 0.00 0.00 0.00 54 1010.7
20260905233047 95 49 1.0 3.0 0.00 0.00 0.00 51 1010.6
20260905231540 95 41 2.0 4.0 0.00 0.00 0.00 50 1010.6
20260905230039 95 45 2.0 4.0 0.00 0.00 0.00 50 1010.6
20260905224608 96 69 2.0 4.0 0.00 0.00 0.00 49 1010.6
20260905223044 96 37 2.0 5.0 0.00 0.00 0.00 48 1010.6
20260905221537 96 45 3.0 5.0 0.00 0.00 0.00 48 1010.6
20260905220037 97 49 4.0 8.0 0.00 0.00 0.00 45 1010.7
20260905214543 97 89 3.0 7.0 0.00 0.00 0.00 44 1010.8
20260905213033 97 35 4.0 7.0 0.00 0.00 0.00 45 1011.1
20260905211541 98 64 2.0 6.0 0.00 0.00 0.00 46 1011.3
20260905210040 97 18 5.0 7.0 0.00 0.00 0.00 46 1011.7
20260905204528 97 53 4.0 8.0 0.00 0.00 0.00 46 1011.8
20260905203028 97 345 2.0 8.0 0.00 0.00 0.00 47 1011.9
20260905201527 96 67 3.0 8.0 0.00 0.00 0.00 48 1012.0
20260905200028 96 26 6.0 8.0 0.00 0.00 0.00 48 1012.2
20260905194525 96 6 3.0 7.0 0.00 0.00 0.00 48 1012.5
20260905193024 96 76 2.0 6.0 0.00 0.00 0.00 47 1012.7
20260905191524 95 37 2.0 6.0 0.00 0.00 0.00 51 1012.8
20260905190024 96 71 3.0 6.0 0.00 0.00 0.00 51 1012.9
20260905184529 97 134 3.0 5.0 0.00 0.00 0.00 50 1012.9
20260905183024 97 157 2.0 6.0 0.00 0.00 0.00 48 1013.1
20260905181521 96 111 2.0 6.0 0.00 0.00 0.00 51 1013.2
20260905180017 95 184 2.0 6.0 0.00 0.00 0.00 56 1013.3
20260905174515 94 117 2.0 6.0 0.00 0.00 0.00 56 1013.6
20260905173012 92 36 3.0 5.0 0.00 0.00 0.00 61 1013.8
20260905171509 92 101 2.0 4.0 0.00 0.00 0.00 62 1013.9
20260905170009 89 72 3.0 5.0 0.00 0.00 0.00 66 1014.1
20260905164513 90 27 2.0 5.0 0.00 0.00 0.00 64 1014.2
20260905163005 91 146 2.0 5.0 0.00 0.00 0.00 61 1014.0
20260905161506 89 78 1.0 5.0 0.00 0.00 0.00 63 1014.1
20260905160100 89 72 3.0 5.0 0.00 0.00 0.00 64 1014.0
20260905154608 88 95 2.0 5.0 0.00 0.00 0.00 63 1013.8
20260905153054 87 81 1.0 4.0 0.00 0.00 0.00 64 1013.7
20260905151551 86 213 1.0 4.0 0.00 0.00 0.00 66 1013.6
20260905150051 85 120 1.0 3.0 0.00 0.00 0.00 70 1013.6
20260905144546 84 43 0.0 2.0 0.00 0.00 0.00 68 1013.5
20260905143042 83 139 0.0 3.0 0.00 0.00 0.00 73 1013.4
20260905141541 80 92 0.0 2.0 0.00 0.00 0.00 78 1013.5
20260905140040 79 126 1.0 3.0 0.00 0.00 0.00 79 1013.5
20260905134539 78 122 1.0 3.0 0.00 0.00 0.00 79 1013.5
20260905133039 78 128 0.0 2.0 0.00 0.00 0.00 82 1013.3
20260905131536 77 128 1.0 2.0 0.00 0.00 0.00 83 1013.1
20260905130036 76 76 1.0 3.0 0.00 0.00 0.00 84 1012.9
20260905124534 75 133 1.0 2.0 0.00 0.00 0.00 86 1012.9
20260905123032 75 99 0.0 2.0 0.00 0.00 0.00 88 1012.6
20260905121531 74 137 0.0 1.0 0.00 0.00 0.00 89 1012.7
20260905120032 74 97 0.0 3.0 0.00 0.00 0.00 89 1012.5
20260905114529 75 141 0.0 2.0 0.00 0.00 0.00 89 1012.1
20260905113029 74 141 0.0 0.0 0.00 0.00 0.00 88 1012.1
20260905111527 75 141 0.0 1.0 0.00 0.00 0.00 88 1012.0
20260905110027 75 141 0.0 0.0 0.00 0.00 0.00 88 1012.0
20260905104525 75 141 0.0 0.0 0.00 0.00 0.00 88 1011.8
20260905103024 75 141 0.0 2.0 0.00 0.00 0.00 88 1011.8
20260905101528 75 141 0.0 3.0 0.00 0.00 0.00 87 1011.7
20260905100051 75 141 0.0 2.0 0.00 0.00 0.00 87 1011.6
20260905094521 76 141 0.0 0.0 0.00 0.00 0.00 87 1011.7
20260905093020 76 141 0.0 2.0 0.00 0.00 0.00 87 1011.8
20260905091518 76 141 0.0 1.0 0.00 0.00 0.00 86 1011.9
20260905090018 77 141 0.0 2.0 0.00 0.00 0.00 86 1011.9
20260905084516 76 141 0.0 0.0 0.00 0.00 0.00 86 1011.8
20260905083016 77 141 0.0 0.0 0.00 0.00 0.00 86 1011.8
20260905081514 77 141 0.0 2.0 0.00 0.00 0.00 86 1011.8
20260905080014 78 141 0.0 2.0 0.00 0.00 0.00 85 1011.7
20260905074520 78 141 0.0 1.0 0.00 0.00 0.00 83 1011.7
20260905073011 78 141 0.0 0.0 0.00 0.00 0.00 84 1011.8
20260905071508 78 141 0.0 1.0 0.00 0.00 0.00 85 1011.7
20260905070006 79 141 0.0 2.0 0.00 0.00 0.00 85 1011.9
20260905064506 79 122 0.0 2.0 0.00 0.00 0.00 83 1012.0
20260905063004 79 13 0.0 1.0 0.00 0.00 0.00 82 1012.0
20260905061503 79 13 0.0 0.0 0.00 0.00 0.00 84 1012.1
20260905060003 80 13 0.0 0.0 0.00 0.00 0.00 84 1012.1
20260905054708 80 13 0.0 1.0 0.00 0.00 0.00 84 1011.9
20260905053058 80 13 0.0 2.0 0.00 0.00 0.00 83 1011.9
20260905051554 81 13 1.0 3.0 0.00 0.00 0.00 79 1011.9